GALAXY 28 (G-28)

Last updated on Mon Nov 03 2025 00:02:55 GMT+0000 (Coordinated Universal Time)

1 28702U 05022A 25306.48621059 -.00000173 00000+0 00000+0 0 9999 2 28702 2.7114 81.7519 0002272 169.3335 237.2939 1.00272793 49706
UTC large
Height (km)
Speed (km/s)
/
Latitude / Longitude
Inclination (degrees)
Orbital Period (minutes)
Azimuth
Elevation
Range (km)
Doppler Factor

Next 0 passes for location: London (51.5072 / 0.1276)

Sorry there are no passes over London.